ES'HAIL 2

Last updated on Thu Nov 21 2024 00:02:44 GMT+0000 (Coordinated Universal Time)

1 43700U 18090A 24325.30036102 .00000146 00000+0 00000+0 0 9992 2 43700 0.0114 326.2182 0002232 310.9101 276.6091 1.00272624 21929
UTC large
Height (km)
Speed (km/s)
/
Latitude / Longitude
Inclination (degrees)
Orbital Period (minutes)
Azimuth
Elevation
Range (km)
Doppler Factor

Next 0 passes for location: London (51.5072 / 0.1276)

Sorry there are no passes over London.